Year,Month,Day,Hour,Minute,Value (Times are PST for windgust in km/hr)
2015,12,12,12,05,27.40
2015,12,12,12,06,72.40
2015,12,12,12,07,57.90
2015,12,12,12,08,51.50
2015,12,12,12,09,61.20
2015,12,12,12,10,48.30
2015,12,12,12,11,57.90
2015,12,12,12,12,51.50
2015,12,12,12,13,43.50
2015,12,12,12,14,56.30
2015,12,12,12,15,43.50
2015,12,12,12,16,45.10
2015,12,12,12,17,46.70
2015,12,12,12,18,51.50
2015,12,12,12,19,45.10
2015,12,12,12,20,57.90
2015,12,12,12,21,45.10
2015,12,12,12,22,56.30
2015,12,12,12,23,67.60
2015,12,12,12,24,38.60
2015,12,12,12,25,56.30
2015,12,12,12,26,41.80
2015,12,12,12,27,49.90
2015,12,12,12,28,70.80
2015,12,12,12,29,43.50
2015,12,12,12,30,61.20
2015,12,12,12,31,54.70
2015,12,12,12,32,37.00
2015,12,12,12,33,46.70
2015,12,12,12,34,46.70
2015,12,12,12,35,61.20
2015,12,12,12,36,56.30
2015,12,12,12,37,49.90
2015,12,12,12,38,56.30
2015,12,12,12,39,57.90
2015,12,12,12,40,56.30
2015,12,12,12,41,49.90
2015,12,12,12,42,45.10
2015,12,12,12,43,53.10
2015,12,12,12,44,59.50
2015,12,12,12,45,53.10
2015,12,12,12,46,45.10
2015,12,12,12,47,54.70
2015,12,12,12,48,54.70
2015,12,12,12,49,57.90
2015,12,12,12,50,64.40
2015,12,12,12,51,54.70
2015,12,12,12,52,54.70
2015,12,12,12,53,53.10
2015,12,12,12,54,53.10
2015,12,12,12,55,54.70
2015,12,12,12,56,43.50
2015,12,12,12,57,37.00
2015,12,12,12,58,64.40
2015,12,12,12,59,61.20
2015,12,12,13,00,45.10
2015,12,12,13,01,51.50
2015,12,12,13,02,40.20
2015,12,12,13,03,41.80
2015,12,12,13,04,43.50
2015,12,12,13,05,43.50
2015,12,12,13,06,61.20
2015,12,12,13,07,46.70
2015,12,12,13,08,41.80
2015,12,12,13,09,59.50
2015,12,12,13,10,46.70
2015,12,12,13,11,49.90
2015,12,12,13,12,35.40
2015,12,12,13,13,61.20
2015,12,12,13,14,46.70
2015,12,12,13,15,51.50
2015,12,12,13,16,54.70
2015,12,12,13,17,46.70
2015,12,12,13,18,62.70
2015,12,12,13,19,62.70
2015,12,12,13,20,70.80
2015,12,12,13,21,54.70
2015,12,12,13,22,62.70
2015,12,12,13,23,62.70
2015,12,12,13,24,53.10
2015,12,12,13,25,49.90
2015,12,12,13,26,56.30
2015,12,12,13,27,57.90
2015,12,12,13,28,69.20
2015,12,12,13,29,61.20
2015,12,12,13,30,66.00
2015,12,12,13,31,72.40
2015,12,12,13,32,61.20
2015,12,12,13,33,64.40
2015,12,12,13,34,59.50
2015,12,12,13,35,59.50
2015,12,12,13,36,64.40
2015,12,12,13,37,59.50
2015,12,12,13,38,69.20
2015,12,12,13,39,66.00
2015,12,12,13,40,72.40
2015,12,12,13,41,59.50
2015,12,12,13,42,57.90
2015,12,12,13,43,61.20
2015,12,12,13,44,51.50
2015,12,12,13,45,54.70
2015,12,12,13,46,53.10
2015,12,12,13,47,48.30
2015,12,12,13,48,61.20
2015,12,12,13,49,64.40
2015,12,12,13,50,66.00
2015,12,12,13,51,64.40
2015,12,12,13,52,57.90
2015,12,12,13,53,56.30
2015,12,12,13,54,64.40
2015,12,12,13,55,57.90
2015,12,12,13,56,61.20
2015,12,12,13,57,69.20
2015,12,12,13,58,62.70
2015,12,12,13,59,51.50
2015,12,12,14,00,57.90
2015,12,12,14,01,74.00
2015,12,12,14,02,46.70
2015,12,12,14,03,48.30
2015,12,12,14,04,59.50
2015,12,12,14,05,64.40
2015,12,12,14,06,77.30
2015,12,12,14,07,67.60
2015,12,12,14,08,56.30
2015,12,12,14,09,69.20
2015,12,12,14,10,64.40
2015,12,12,14,11,70.80
2015,12,12,14,12,48.30
2015,12,12,14,13,62.70
2015,12,12,14,14,45.10
2015,12,12,14,15,62.70
2015,12,12,14,16,61.20
2015,12,12,14,17,51.50
2015,12,12,14,18,72.40
2015,12,12,14,19,51.50
2015,12,12,14,20,64.40
2015,12,12,14,21,56.30
2015,12,12,14,22,53.10
2015,12,12,14,23,74.00
2015,12,12,14,24,77.30
2015,12,12,14,25,69.20
2015,12,12,14,26,57.90
2015,12,12,14,27,77.30
2015,12,12,14,28,56.30
2015,12,12,14,29,46.70
2015,12,12,14,30,59.50
2015,12,12,14,31,64.40
2015,12,12,14,32,69.20
2015,12,12,14,33,59.50
2015,12,12,14,34,59.50
2015,12,12,14,35,56.30
2015,12,12,14,36,64.40
2015,12,12,14,37,59.50
2015,12,12,14,38,56.30
2015,12,12,14,39,56.30
2015,12,12,14,40,64.40
2015,12,12,14,41,57.90
2015,12,12,14,42,62.70
2015,12,12,14,43,41.80
2015,12,12,14,44,62.70
2015,12,12,14,45,56.30
2015,12,12,14,46,43.50
2015,12,12,14,47,49.90
2015,12,12,14,48,54.70
2015,12,12,14,49,53.10
2015,12,12,14,50,51.50
2015,12,12,14,51,61.20
2015,12,12,14,52,54.70
2015,12,12,14,53,59.50
2015,12,12,14,54,64.40
2015,12,12,14,55,54.70
2015,12,12,14,56,53.10
2015,12,12,14,57,54.70
2015,12,12,14,58,54.70
2015,12,12,14,59,53.10
2015,12,12,15,00,41.80
2015,12,12,15,01,62.70
2015,12,12,15,02,61.20
2015,12,12,15,03,49.90
2015,12,12,15,04,57.90
2015,12,12,15,05,54.70
2015,12,12,15,06,70.80
2015,12,12,15,07,53.10
2015,12,12,15,08,48.30
2015,12,12,15,09,38.60
2015,12,12,15,10,51.50
2015,12,12,15,11,45.10
2015,12,12,15,12,43.50
2015,12,12,15,13,41.80
2015,12,12,15,14,45.10
2015,12,12,15,15,46.70
2015,12,12,15,16,46.70
2015,12,12,15,17,43.50
2015,12,12,15,18,38.60
2015,12,12,15,19,64.40
2015,12,12,15,20,43.50
2015,12,12,15,21,56.30
2015,12,12,15,22,48.30
2015,12,12,15,23,46.70
2015,12,12,15,24,49.90
2015,12,12,15,25,38.60
2015,12,12,15,26,45.10
2015,12,12,15,27,41.80
2015,12,12,15,28,49.90
2015,12,12,15,29,51.50
2015,12,12,15,30,46.70
2015,12,12,15,31,35.40
2015,12,12,15,32,53.10
2015,12,12,15,33,45.10
2015,12,12,15,34,35.40
2015,12,12,15,35,43.50
2015,12,12,15,36,45.10
2015,12,12,15,37,46.70
2015,12,12,15,38,45.10
2015,12,12,15,39,35.40
2015,12,12,15,40,48.30
2015,12,12,15,41,45.10
2015,12,12,15,42,35.40
2015,12,12,15,43,48.30
2015,12,12,15,44,30.60
2015,12,12,15,45,41.80
2015,12,12,15,46,33.80
2015,12,12,15,47,32.20
2015,12,12,15,48,40.20
2015,12,12,15,49,46.70
2015,12,12,15,50,37.00
2015,12,12,15,51,27.40
2015,12,12,15,52,32.20
2015,12,12,15,53,24.20
2015,12,12,15,54,33.80
2015,12,12,15,55,24.20
2015,12,12,15,56,38.60
2015,12,12,15,57,32.20
2015,12,12,15,58,25.70
2015,12,12,15,59,22.50
2015,12,12,16,00,33.80
2015,12,12,16,01,11.30
2015,12,12,16,02,29.00
2015,12,12,16,03,14.50
2015,12,12,16,04,12.90
2015,12,12,16,05,11.30
2015,12,12,16,06,19.30
2015,12,12,16,07,20.90
2015,12,12,16,08,16.10
2015,12,12,16,09,40.20
2015,12,12,16,10,32.20
2015,12,12,16,11,20.90
2015,12,12,16,12,32.20
2015,12,12,16,13,30.60
2015,12,12,16,14,38.60
2015,12,12,16,15,35.40
2015,12,12,16,16,35.40
2015,12,12,16,17,37.00
2015,12,12,16,18,43.50
2015,12,12,16,19,30.60
2015,12,12,16,20,27.40
2015,12,12,16,21,19.30
2015,12,12,16,22,22.50
2015,12,12,16,23,19.30
2015,12,12,16,24,25.70
2015,12,12,16,25,22.50
2015,12,12,16,26,29.00
2015,12,12,16,27,14.50
2015,12,12,16,28,11.30
2015,12,12,16,29,4.80
2015,12,12,16,30,8.10
2015,12,12,16,31,4.80
2015,12,12,16,32,6.40
2015,12,12,16,33,8.10
2015,12,12,16,34,9.60
2015,12,12,16,35,4.80
2015,12,12,16,36,3.20
2015,12,12,16,37,19.30
2015,12,12,16,38,9.60
2015,12,12,16,39,3.20
2015,12,12,16,40,17.70
2015,12,12,16,41,19.30
2015,12,12,16,42,19.30
2015,12,12,16,43,19.30
2015,12,12,16,44,16.10
2015,12,12,16,45,9.60
2015,12,12,16,46,20.90
2015,12,12,16,47,16.10
2015,12,12,16,48,17.70
2015,12,12,16,49,16.10
2015,12,12,16,50,17.70
2015,12,12,16,51,14.50
2015,12,12,16,52,9.60
2015,12,12,16,53,9.60
2015,12,12,16,54,27.40
2015,12,12,16,55,14.50
2015,12,12,16,56,11.30
2015,12,12,16,57,19.30
2015,12,12,16,58,9.60
2015,12,12,16,59,12.90
2015,12,12,17,00,19.30
2015,12,12,17,01,29.00
2015,12,12,17,02,33.80
2015,12,12,17,03,19.30
2015,12,12,17,04,20.90
2015,12,12,17,05,25.70
2015,12,12,17,06,30.60
2015,12,12,17,07,25.70
2015,12,12,17,08,11.30
2015,12,12,17,09,27.40
2015,12,12,17,10,20.90
2015,12,12,17,11,29.00
2015,12,12,17,12,20.90
2015,12,12,17,13,24.20
2015,12,12,17,14,19.30
2015,12,12,17,15,9.60
2015,12,12,17,16,14.50
2015,12,12,17,17,9.60
2015,12,12,17,18,16.10
2015,12,12,17,19,11.30
2015,12,12,17,20,11.30
2015,12,12,17,21,11.30
2015,12,12,17,22,14.50
2015,12,12,17,23,22.50
2015,12,12,17,24,20.90
2015,12,12,17,25,17.70
2015,12,12,17,26,20.90
2015,12,12,17,27,22.50
2015,12,12,17,28,25.70
2015,12,12,17,29,14.50
2015,12,12,17,30,27.40
2015,12,12,17,31,25.70
2015,12,12,17,32,20.90
2015,12,12,17,33,24.20
2015,12,12,17,34,22.50
2015,12,12,17,35,32.20
2015,12,12,17,36,20.90
2015,12,12,17,37,30.60
2015,12,12,17,38,20.90
2015,12,12,17,39,27.40
2015,12,12,17,40,30.60
2015,12,12,17,41,22.50
2015,12,12,17,42,20.90
2015,12,12,17,43,25.70
2015,12,12,17,44,6.40
2015,12,12,17,45,16.10
2015,12,12,17,46,19.30
2015,12,12,17,47,17.70
2015,12,12,17,48,9.60
2015,12,12,17,49,14.50
2015,12,12,17,50,11.30
2015,12,12,17,51,19.30
2015,12,12,17,52,22.50
2015,12,12,17,53,19.30
2015,12,12,17,54,19.30
2015,12,12,17,55,16.10
2015,12,12,17,56,14.50
2015,12,12,17,57,29.00
2015,12,12,17,58,17.70
2015,12,12,17,59,16.10
2015,12,12,18,00,27.40
2015,12,12,18,01,24.20
2015,12,12,18,02,17.70
2015,12,12,18,03,11.30
2015,12,12,18,04,1.60
2015,12,12,18,05,4.80
2015,12,12,18,06,16.10
2015,12,12,18,07,14.50
2015,12,12,18,08,4.80
2015,12,12,18,09,3.20
2015,12,12,18,10,8.10
2015,12,12,18,11,17.70
2015,12,12,18,12,20.90
2015,12,12,18,13,9.60
2015,12,12,18,14,20.90
2015,12,12,18,15,14.50
2015,12,12,18,16,14.50
2015,12,12,18,17,17.70
2015,12,12,18,18,16.10
2015,12,12,18,19,11.30
2015,12,12,18,20,8.10
2015,12,12,18,21,4.80
2015,12,12,18,22,3.20
2015,12,12,18,23,14.50
2015,12,12,18,24,16.10
2015,12,12,18,25,16.10
2015,12,12,18,26,17.70
2015,12,12,18,27,11.30
2015,12,12,18,28,8.10
2015,12,12,18,29,17.70
2015,12,12,18,30,1.60
2015,12,12,18,31,8.10
2015,12,12,18,32,1.60
2015,12,12,18,33,1.60
2015,12,12,18,35,1.60
2015,12,12,18,36,14.50
2015,12,12,18,37,4.80
2015,12,12,18,38,8.10
2015,12,12,18,39,9.60
2015,12,12,18,40,20.90
2015,12,12,18,41,6.40
2015,12,12,18,42,24.20
2015,12,12,18,43,11.30
2015,12,12,18,44,19.30
2015,12,12,18,45,11.30
2015,12,12,18,46,17.70
2015,12,12,18,47,11.30
2015,12,12,18,48,9.60
2015,12,12,18,49,6.40
2015,12,12,18,50,8.10
2015,12,12,18,51,9.60
2015,12,12,18,52,9.60
2015,12,12,18,53,12.90
2015,12,12,18,54,11.30
2015,12,12,18,55,17.70
2015,12,12,18,56,20.90
2015,12,12,18,57,22.50
2015,12,12,18,58,9.60
2015,12,12,18,59,14.50
2015,12,12,19,00,19.30
2015,12,12,19,01,19.30
2015,12,12,19,02,16.10
2015,12,12,19,03,27.40
2015,12,12,19,04,20.90
2015,12,12,19,05,11.30
2015,12,12,19,06,16.10
2015,12,12,19,07,38.60
2015,12,12,19,08,24.20
2015,12,12,19,09,27.40
2015,12,12,19,10,24.20
2015,12,12,19,11,14.50
2015,12,12,19,12,22.50
2015,12,12,19,13,27.40
2015,12,12,19,14,20.90
2015,12,12,19,15,20.90
2015,12,12,19,16,19.30
2015,12,12,19,17,30.60
2015,12,12,19,18,24.20
2015,12,12,19,19,24.20
2015,12,12,19,20,29.00
2015,12,12,19,21,16.10
2015,12,12,19,22,16.10
2015,12,12,19,23,11.30
2015,12,12,19,24,27.40
2015,12,12,19,25,24.20
2015,12,12,19,26,16.10
2015,12,12,19,27,16.10
2015,12,12,19,28,17.70
2015,12,12,19,29,20.90
2015,12,12,19,30,17.70
2015,12,12,19,31,29.00
2015,12,12,19,32,24.20
2015,12,12,19,33,19.30
2015,12,12,19,34,20.90
2015,12,12,19,35,14.50
2015,12,12,19,36,33.80
2015,12,12,19,37,29.00
2015,12,12,19,38,33.80
2015,12,12,19,39,33.80
2015,12,12,19,40,22.50
2015,12,12,19,41,22.50
2015,12,12,19,42,16.10
2015,12,12,19,43,19.30
2015,12,12,19,44,24.20
2015,12,12,19,45,24.20
2015,12,12,19,46,22.50
2015,12,12,19,47,20.90
2015,12,12,19,48,30.60
2015,12,12,19,49,32.20
2015,12,12,19,50,17.70
2015,12,12,19,51,16.10
2015,12,12,19,52,20.90
2015,12,12,19,53,11.30
2015,12,12,19,54,17.70
2015,12,12,19,55,45.10
2015,12,12,19,56,25.70
2015,12,12,19,57,32.20
2015,12,12,19,58,24.20
2015,12,12,19,59,38.60
2015,12,12,20,00,30.60
2015,12,12,20,01,30.60
2015,12,12,20,02,32.20
2015,12,12,20,03,51.50
2015,12,12,20,04,40.20
2015,12,12,20,05,30.60
2015,12,12,20,06,30.60
2015,12,12,20,07,9.60
2015,12,12,20,08,9.60
2015,12,12,20,09,19.30
2015,12,12,20,10,14.50
2015,12,12,20,11,19.30
2015,12,12,20,12,24.20
2015,12,12,20,13,27.40
2015,12,12,20,14,20.90
2015,12,12,20,15,19.30
2015,12,12,20,16,27.40
2015,12,12,20,17,37.00
2015,12,12,20,18,29.00
2015,12,12,20,19,25.70
2015,12,12,20,20,45.10
2015,12,12,20,21,30.60
2015,12,12,20,22,29.00
2015,12,12,20,23,30.60
2015,12,12,20,24,40.20
2015,12,12,20,25,25.70
2015,12,12,20,26,20.90
2015,12,12,20,27,20.90
2015,12,12,20,28,37.00
2015,12,12,20,29,32.20
2015,12,12,20,30,30.60
2015,12,12,20,31,20.90
2015,12,12,20,32,38.60
2015,12,12,20,33,25.70
2015,12,12,20,34,35.40
2015,12,12,20,35,27.40
2015,12,12,20,36,8.10
2015,12,12,20,37,49.90
2015,12,12,20,38,43.50
2015,12,12,20,39,51.50
2015,12,12,20,40,29.00
2015,12,12,20,41,48.30
2015,12,12,20,42,64.40
2015,12,12,20,43,43.50
2015,12,12,20,44,29.00
2015,12,12,20,45,19.30
2015,12,12,20,46,30.60
2015,12,12,20,47,37.00
2015,12,12,20,48,20.90
2015,12,12,20,49,17.70
2015,12,12,20,50,24.20
2015,12,12,20,51,22.50
2015,12,12,20,52,24.20
2015,12,12,20,53,46.70
2015,12,12,20,54,35.40
2015,12,12,20,55,38.60
2015,12,12,20,56,30.60
2015,12,12,20,57,12.90
2015,12,12,20,58,48.30
2015,12,12,20,59,40.20
2015,12,12,21,00,38.60
2015,12,12,21,01,49.90
2015,12,12,21,02,32.20
2015,12,12,21,03,16.10
2015,12,12,21,04,16.10
2015,12,12,21,05,37.00
2015,12,12,21,06,37.00
2015,12,12,21,07,37.00
2015,12,12,21,08,41.80
2015,12,12,21,09,33.80
2015,12,12,21,10,27.40
2015,12,12,21,11,30.60
2015,12,12,21,12,43.50
2015,12,12,21,13,53.10
2015,12,12,21,14,22.50
2015,12,12,21,15,54.70
2015,12,12,21,16,30.60
2015,12,12,21,17,29.00
2015,12,12,21,18,37.00
2015,12,12,21,19,41.80
2015,12,12,21,20,33.80
2015,12,12,21,21,22.50
2015,12,12,21,22,30.60
2015,12,12,21,23,49.90
2015,12,12,21,24,30.60
2015,12,12,21,25,38.60
2015,12,12,21,26,20.90
2015,12,12,21,27,32.20
2015,12,12,21,28,29.00
2015,12,12,21,29,49.90
2015,12,12,21,30,30.60
2015,12,12,21,31,30.60
2015,12,12,21,32,40.20
2015,12,12,21,33,48.30
2015,12,12,21,34,19.30
2015,12,12,21,35,38.60
2015,12,12,21,36,29.00
2015,12,12,21,37,37.00
2015,12,12,21,38,25.70
2015,12,12,21,39,33.80
2015,12,12,21,40,20.90
2015,12,12,21,41,37.00
2015,12,12,21,42,17.70
2015,12,12,21,43,22.50
2015,12,12,21,44,38.60
2015,12,12,21,45,33.80
2015,12,12,21,46,19.30
2015,12,12,21,47,33.80
2015,12,12,21,48,40.20
2015,12,12,21,49,35.40
2015,12,12,21,50,20.90
2015,12,12,21,51,29.00
2015,12,12,21,52,40.20
2015,12,12,21,53,54.70
2015,12,12,21,54,38.60
2015,12,12,21,55,32.20
2015,12,12,21,56,29.00
2015,12,12,21,57,25.70
2015,12,12,21,58,27.40
2015,12,12,21,59,24.20
2015,12,12,22,00,32.20
2015,12,12,22,01,27.40
2015,12,12,22,02,38.60
2015,12,12,22,03,19.30
2015,12,12,22,04,19.30
2015,12,12,22,05,33.80
2015,12,12,22,06,24.20
2015,12,12,22,07,20.90
2015,12,12,22,08,32.20
2015,12,12,22,09,48.30
2015,12,12,22,10,24.20
2015,12,12,22,11,17.70
2015,12,12,22,12,25.70
2015,12,12,22,13,24.20
2015,12,12,22,14,20.90
2015,12,12,22,15,37.00
2015,12,12,22,16,30.60
2015,12,12,22,17,33.80
2015,12,12,22,18,37.00
2015,12,12,22,19,35.40
2015,12,12,22,20,25.70
2015,12,12,22,21,29.00
2015,12,12,22,22,20.90
2015,12,12,22,23,33.80
2015,12,12,22,24,22.50
2015,12,12,22,25,37.00
2015,12,12,22,26,32.20
2015,12,12,22,27,24.20
2015,12,12,22,28,29.00
2015,12,12,22,29,29.00
2015,12,12,22,30,30.60
2015,12,12,22,31,33.80
2015,12,12,22,32,24.20
2015,12,12,22,33,14.50
2015,12,12,22,34,22.50
2015,12,12,22,35,19.30
2015,12,12,22,36,30.60
2015,12,12,22,37,19.30
2015,12,12,22,38,27.40
2015,12,12,22,39,32.20
2015,12,12,22,40,29.00
2015,12,12,22,41,14.50
2015,12,12,22,42,35.40
2015,12,12,22,43,27.40
2015,12,12,22,44,17.70
2015,12,12,22,45,22.50
2015,12,12,22,46,46.70
2015,12,12,22,47,30.60
2015,12,12,22,48,30.60
2015,12,12,22,49,27.40
2015,12,12,22,50,33.80
2015,12,12,22,51,24.20
2015,12,12,22,52,37.00
2015,12,12,22,53,25.70
2015,12,12,22,54,25.70
2015,12,12,22,55,33.80
2015,12,12,22,56,51.50
2015,12,12,22,57,43.50
2015,12,12,22,58,22.50
2015,12,12,22,59,27.40
2015,12,12,23,00,32.20
2015,12,12,23,01,35.40
2015,12,12,23,02,25.70
2015,12,12,23,03,32.20
2015,12,12,23,04,30.60
2015,12,12,23,05,33.80
2015,12,12,23,06,38.60
2015,12,12,23,07,40.20
2015,12,12,23,08,29.00
2015,12,12,23,09,29.00
2015,12,12,23,10,22.50
2015,12,12,23,11,27.40
2015,12,12,23,12,53.10
2015,12,12,23,13,40.20
2015,12,12,23,14,32.20
2015,12,12,23,15,33.80
2015,12,12,23,16,19.30
2015,12,12,23,17,29.00
2015,12,12,23,18,20.90
2015,12,12,23,19,32.20
2015,12,12,23,20,37.00
2015,12,12,23,21,35.40
2015,12,12,23,22,37.00
2015,12,12,23,23,27.40
2015,12,12,23,24,45.10
2015,12,12,23,25,37.00
2015,12,12,23,26,9.60
2015,12,12,23,27,29.00
2015,12,12,23,28,25.70
2015,12,12,23,29,27.40
2015,12,12,23,30,27.40
2015,12,12,23,31,33.80
2015,12,12,23,32,49.90
2015,12,12,23,33,37.00
2015,12,12,23,34,32.20
2015,12,12,23,35,27.40
2015,12,12,23,36,32.20
2015,12,12,23,37,32.20
2015,12,12,23,38,24.20
2015,12,12,23,39,41.80
2015,12,12,23,40,38.60
2015,12,12,23,41,25.70
2015,12,12,23,42,27.40
2015,12,12,23,43,40.20
2015,12,12,23,44,30.60
2015,12,12,23,45,45.10
2015,12,12,23,46,41.80
2015,12,12,23,47,37.00
2015,12,12,23,48,38.60
2015,12,12,23,49,49.90
2015,12,12,23,50,37.00
2015,12,12,23,51,37.00
2015,12,12,23,52,35.40
2015,12,12,23,53,33.80
2015,12,12,23,54,40.20
2015,12,12,23,55,30.60
2015,12,12,23,56,25.70
2015,12,12,23,57,37.00
2015,12,12,23,58,25.70
2015,12,12,23,59,25.70
